FW7026 Weather Reports


Display with metric or nautical units.
time (UTC)temp
F
wind
direction
speed
MPH
gust
MPH
rain 1hr
in
rain 24hr
in
rain mn
in
humidity
%
barometer
mb
20260906132726 53 20 0.0 0.0 0.00 0.05 0.05 91 1012.6
20260906132222 53 20 0.0 0.0 0.00 0.05 0.05 91 1012.6
20260906131717 53 20 0.0 0.0 0.00 0.05 0.05 91 1012.6
20260906130027 52 247 0.0 0.0 0.00 0.05 0.05 91 1012.6
20260906125524 52 247 0.0 0.0 0.00 0.05 0.05 91 1012.6
20260906125019 52 247 0.0 0.0 0.00 0.05 0.05 91 1012.6
20260906123323 51 304 0.0 0.0 0.00 0.05 0.05 92 1012.9
20260906122823 51 304 0.0 0.0 0.00 0.05 0.05 92 1012.9
20260906122318 51 304 0.0 0.0 0.00 0.05 0.05 92 1012.9
20260906120622 50 270 0.0 0.0 0.00 0.05 0.05 92 1012.6
20260906120119 50 270 0.0 0.0 0.00 0.05 0.05 92 1012.6
20260906115618 50 270 0.0 0.0 0.00 0.05 0.05 92 1012.6
20260906113922 50 196 0.0 0.0 0.00 0.05 0.05 92 1012.9
20260906113420 50 196 0.0 0.0 0.00 0.05 0.05 92 1012.9
20260906112917 50 196 0.0 0.0 0.00 0.05 0.05 92 1012.9
20260906111227 49 211 0.0 0.0 0.00 0.05 0.05 92 1012.9
20260906110722 49 211 0.0 0.0 0.00 0.05 0.05 92 1012.9
20260906110218 49 211 0.0 0.0 0.00 0.05 0.05 92 1012.9
20260906104526 49 198 0.0 0.0 0.00 0.05 0.05 91 1012.6
20260906104021 49 198 0.0 0.0 0.00 0.05 0.05 91 1012.6
20260906103518 49 198 0.0 0.0 0.00 0.05 0.05 91 1012.6
20260906101828 49 147 0.0 0.0 0.14 0.02 0.02 91 1012.9
20260906101323 49 147 0.0 0.0 0.14 0.02 0.02 91 1012.9
20260906100819 49 147 0.0 0.0 0.14 0.02 0.02 91 1012.9
20260906095123 48 128 0.0 0.0 0.00 0.00 0.00 92 1012.9
20260906094622 48 128 0.0 0.0 0.00 0.00 0.00 92 1012.9
20260906094118 48 128 0.0 0.0 0.00 0.00 0.00 92 1012.9
20260906092424 48 149 0.0 0.0 0.00 0.00 0.00 92 1012.9
20260906091920 48 149 0.0 0.0 0.00 0.00 0.00 92 1012.9
20260906091415 48 149 0.0 0.0 0.00 0.00 0.00 92 1012.9
20260906085724 48 257 0.0 0.0 0.00 0.00 0.00 92 1012.9
20260906085223 48 257 0.0 0.0 0.00 0.00 0.00 92 1012.9
20260906084718 48 257 0.0 0.0 0.00 0.00 0.00 92 1012.9
20260906083027 47 81 0.0 0.0 0.00 0.00 0.00 91 1012.6
20260906082523 47 81 0.0 0.0 0.00 0.00 0.00 91 1012.6
20260906082018 47 81 0.0 0.0 0.00 0.00 0.00 91 1012.6
20260906080316 47 174 0.0 0.0 0.00 0.00 0.00 91 1013.3
20260906075816 47 174 0.0 0.0 0.00 0.00 0.00 91 1013.3
20260906075315 47 174 0.0 0.0 0.00 0.00 0.00 91 1013.3
20260906073626 47 307 0.0 0.0 0.00 0.00 0.00 91 1012.9
20260906073121 47 307 0.0 0.0 0.00 0.00 0.00 91 1012.9
20260906072616 47 307 0.0 0.0 0.00 0.00 0.00 91 1012.9
20260906070929 47 260 0.0 0.0 0.00 0.00 0.00 91 1012.9
20260906070419 47 260 0.0 0.0 0.00 0.00 0.00 91 1012.9
20260906065914 47 260 0.0 0.0 0.00 0.00 0.00 91 1012.9
20260906064225 48 207 0.0 0.0 0.00 0.00 0.00 90 1012.9
20260906063719 48 207 0.0 0.0 0.00 0.00 0.00 90 1012.9
20260906063214 48 207 0.0 0.0 0.00 0.00 0.00 90 1012.9
20260906061523 49 168 0.0 0.0 0.00 0.00 0.00 91 1013.3
20260906061022 49 168 0.0 0.0 0.00 0.00 0.00 91 1013.3
20260906060519 49 168 0.0 0.0 0.00 0.00 0.00 91 1013.3
20260906054826 48 177 0.0 0.0 0.00 0.00 0.00 91 1013.3
20260906054321 48 177 0.0 0.0 0.00 0.00 0.00 91 1013.3
20260906053817 48 177 0.0 0.0 0.00 0.00 0.00 91 1013.3
20260906051923 48 204 0.0 0.0 0.00 0.00 0.00 91 1012.9
20260906051418 48 204 0.0 0.0 0.00 0.00 0.00 91 1012.9
20260906050914 49 228 0.0 0.0 0.00 0.00 0.00 91 1012.9
20260906050413 49 228 0.0 0.0 0.00 0.00 0.00 91 1012.9
20260906045423 48 325 0.0 0.0 0.00 0.00 0.00 91 1013.3
20260906044920 48 325 0.0 0.0 0.00 0.00 0.00 91 1013.3
20260906044419 48 325 0.0 0.0 0.00 0.00 0.00 91 1013.3
20260906042721 49 190 0.0 0.0 0.00 0.00 0.00 91 1013.3
20260906042219 49 190 0.0 0.0 0.00 0.00 0.00 91 1013.3
20260906041715 49 190 0.0 0.0 0.00 0.00 0.00 91 1013.3
20260906040028 49 190 0.0 0.0 0.00 0.02 0.02 88 1013.3
20260906035522 49 190 0.0 0.0 0.00 0.02 0.02 88 1013.3
20260906035018 49 190 0.0 0.0 0.00 0.02 0.02 88 1013.3
20260906033328 50 256 0.0 0.0 0.00 0.02 0.02 86 1013.3
20260906032824 50 256 0.0 0.0 0.00 0.02 0.02 86 1013.3
20260906032319 50 256 0.0 0.0 0.00 0.02 0.02 86 1013.3
20260906030624 50 220 0.0 0.0 0.00 0.02 0.02 81 1013.3
20260906030120 50 220 0.0 0.0 0.00 0.02 0.02 81 1013.3
20260906025618 50 220 0.0 0.0 0.00 0.02 0.02 81 1013.3
20260906023922 51 166 0.0 0.0 0.00 0.02 0.02 79 1013.6
20260906023418 51 166 0.0 0.0 0.00 0.02 0.02 79 1013.6
20260906022917 51 166 0.0 0.0 0.00 0.02 0.02 79 1013.6
20260906021228 52 304 0.0 0.0 0.00 0.02 0.02 79 1014.0
20260906020723 52 304 0.0 0.0 0.00 0.02 0.02 79 1014.0
20260906020217 52 304 0.0 0.0 0.00 0.02 0.02 79 1014.0
20260906014525 53 75 0.0 0.0 0.00 0.02 0.02 78 1014.0
20260906014021 53 75 0.0 0.0 0.00 0.02 0.02 78 1014.0
20260906013515 53 75 0.0 0.0 0.00 0.02 0.02 78 1014.0
20260906011826 54 187 0.0 0.0 0.00 0.02 0.02 77 1014.0
20260906011321 54 187 0.0 0.0 0.00 0.02 0.02 77 1014.0
20260906010817 54 187 0.0 0.0 0.00 0.02 0.02 77 1014.0
20260906005121 55 342 0.0 0.0 0.00 0.02 0.02 75 1014.0
20260906004620 55 342 0.0 0.0 0.00 0.02 0.02 75 1014.0
20260906004114 55 342 0.0 0.0 0.00 0.02 0.02 75 1014.0
20260906002425 56 350 0.0 0.0 0.00 0.02 0.02 73 1013.6
20260906001920 56 350 0.0 0.0 0.00 0.02 0.02 73 1013.6
20260906001416 56 350 0.0 0.0 0.00 0.02 0.02 73 1013.6
20260905235726 57 67 0.0 0.0 0.00 0.02 0.02 73 1013.6
20260905235221 57 67 0.0 0.0 0.00 0.02 0.02 73 1013.6
20260905234717 57 67 0.0 0.0 0.00 0.02 0.02 73 1013.6
20260905233027 58 91 0.0 0.0 0.00 0.02 0.02 72 1013.3
20260905232522 58 91 0.0 0.0 0.00 0.02 0.02 72 1013.3
20260905232018 58 91 0.0 0.0 0.00 0.02 0.02 72 1013.3
20260905230321 58 204 0.0 2.0 0.00 0.02 0.02 73 1013.3
20260905225821 58 204 0.0 2.0 0.00 0.02 0.02 73 1013.3
20260905225316 58 204 0.0 2.0 0.00 0.02 0.02 73 1013.3
20260905223622 60 82 0.0 0.0 0.00 0.02 0.02 70 1012.9
20260905223118 60 82 0.0 0.0 0.00 0.02 0.02 70 1012.9
20260905222618 60 82 0.0 0.0 0.00 0.02 0.02 70 1012.9
20260905220926 60 120 0.0 2.0 0.00 0.02 0.02 69 1012.6
20260905220422 60 120 0.0 2.0 0.00 0.02 0.02 69 1012.6
20260905215920 60 120 0.0 2.0 0.00 0.02 0.02 69 1012.6
20260905214228 62 190 0.0 0.0 0.00 0.02 0.02 66 1012.2
20260905213723 62 190 0.0 0.0 0.00 0.02 0.02 66 1012.2
20260905213219 62 190 0.0 0.0 0.00 0.02 0.02 66 1012.2
20260905211529 64 351 0.0 0.0 0.00 0.02 0.02 64 1011.9
20260905211025 64 351 0.0 0.0 0.00 0.02 0.02 64 1011.9
20260905210520 64 351 0.0 0.0 0.00 0.02 0.02 64 1011.9
20260905204821 64 20 0.0 0.0 0.00 0.02 0.02 63 1011.9
20260905204317 64 20 0.0 0.0 0.00 0.02 0.02 63 1011.9
20260905203815 64 20 0.0 0.0 0.00 0.02 0.02 63 1011.9
20260905202123 64 333 1.0 5.0 0.00 0.02 0.02 65 1011.9
20260905201618 64 333 1.0 5.0 0.00 0.02 0.02 65 1011.9
20260905201117 64 333 1.0 5.0 0.00 0.02 0.02 65 1011.9
20260905195423 64 349 0.0 0.0 0.00 0.02 0.02 62 1011.9
20260905194918 64 349 0.0 0.0 0.00 0.02 0.02 62 1011.9
20260905194417 64 349 0.0 0.0 0.00 0.02 0.02 62 1011.9
20260905192721 66 198 0.0 0.0 0.00 0.02 0.02 63 1011.9
20260905192218 66 198 0.0 0.0 0.00 0.02 0.02 63 1011.9
20260905191717 66 198 0.0 0.0 0.00 0.02 0.02 63 1011.9
20260905190016 66 29 0.0 2.0 0.00 0.02 0.02 59 1011.9
20260905185515 66 29 0.0 2.0 0.00 0.02 0.02 59 1011.9
20260905185014 66 29 0.0 2.0 0.00 0.02 0.02 59 1011.9
20260905183323 66 316 0.0 0.0 0.00 0.02 0.02 60 1011.9
20260905182823 66 316 0.0 0.0 0.00 0.02 0.02 60 1011.9
20260905182317 66 316 0.0 0.0 0.00 0.02 0.02 60 1011.9
20260905180626 64 306 0.0 0.0 0.00 0.02 0.02 61 1011.9
20260905180121 64 306 0.0 0.0 0.00 0.02 0.02 61 1011.9
20260905175620 64 306 0.0 0.0 0.00 0.02 0.02 61 1011.9
20260905173922 67 339 0.0 0.0 0.00 0.02 0.02 61 1011.9
20260905173418 67 339 0.0 0.0 0.00 0.02 0.02 61 1011.9
20260905172918 67 339 0.0 0.0 0.00 0.02 0.02 61 1011.9
20260905171218 63 128 0.0 0.0 0.00 0.02 0.02 67 1011.9
20260905170715 63 128 0.0 0.0 0.00 0.02 0.02 67 1011.9
20260905170215 63 128 0.0 0.0 0.00 0.02 0.02 67 1011.9
20260905164526 65 284 0.0 0.0 0.00 0.02 0.02 70 1011.9
20260905164021 65 284 0.0 0.0 0.00 0.02 0.02 70 1011.9
20260905163516 65 284 0.0 0.0 0.00 0.02 0.02 70 1011.9
20260905161821 65 59 0.0 2.0 0.00 0.02 0.02 70 1011.9
20260905161320 65 59 0.0 2.0 0.00 0.02 0.02 70 1011.9
20260905160818 65 59 0.0 2.0 0.00 0.02 0.02 70 1011.9
20260905155125 62 61 0.0 13.0 0.00 0.02 0.02 73 1011.9
20260905154620 62 61 0.0 13.0 0.00 0.02 0.02 73 1011.9
20260905154115 62 61 0.0 13.0 0.00 0.02 0.02 73 1011.9
20260905152427 62 44 0.0 5.0 0.00 0.02 0.02 75 1011.9
20260905151922 62 44 0.0 5.0 0.00 0.02 0.02 75 1011.9
20260905151418 62 44 0.0 5.0 0.00 0.02 0.02 75 1011.9
20260905145724 61 78 0.0 0.0 0.00 0.02 0.02 79 1011.9
20260905145219 61 78 0.0 0.0 0.00 0.02 0.02 79 1011.9
20260905144717 61 78 0.0 0.0 0.00 0.02 0.02 79 1011.9
20260905143021 61 341 0.0 2.0 0.00 0.02 0.02 78 1012.2
20260905142519 61 341 0.0 2.0 0.00 0.02 0.02 78 1012.2
20260905142015 61 341 0.0 2.0 0.00 0.02 0.02 78 1012.2
20260905140325 62 91 0.0 0.0 0.00 0.02 0.02 79 1010.9
20260905135824 62 91 0.0 0.0 0.00 0.02 0.02 79 1010.9
20260905135319 62 91 0.0 0.0 0.00 0.02 0.02 79 1010.9
20260905133619 60 49 0.0 2.0 0.00 0.02 0.02 81 1011.9